| time (UTC) | temp F | wind direction | speed MPH | gust MPH | rain 1hr in | rain 24hr in | rain mn in | humidity % | barometer mb |
| 20260505003544 | 52 | 0.0 | 0.0 | 0.10 | 0.47 | 0.39 | 93 | 1011.9 | |
| 20260505003005 | 53 | 0.0 | 0.0 | 0.09 | 0.46 | 0.38 | 93 | 1011.9 | |
| 20260505002555 | 53 | 0.0 | 0.0 | 0.09 | 0.46 | 0.37 | 93 | 1011.9 | |
| 20260505002046 | 53 | 0.0 | 0.0 | 0.08 | 0.44 | 0.35 | 93 | 1011.8 | |
| 20260505001512 | 54 | 0.0 | 0.0 | 0.08 | 0.43 | 0.35 | 93 | 1011.9 | |
| 20260505001101 | 54 | 0.0 | 0.0 | 0.07 | 0.43 | 0.34 | 93 | 1011.9 | |
| 20260505000549 | 54 | 0.0 | 0.0 | 0.07 | 0.42 | 0.33 | 93 | 1012.0 | |
| 20260505000014 | 55 | 0.0 | 0.0 | 0.07 | 0.41 | 0.32 | 93 | 1012.0 | |
| 20260504235559 | 55 | 0.0 | 0.0 | 0.07 | 0.40 | 0.31 | 93 | 1012.0 | |
| 20260504235047 | 55 | 0.0 | 0.0 | 0.07 | 0.39 | 0.31 | 93 | 1012.0 | |
| 20260504234507 | 55 | 0.0 | 0.0 | 0.06 | 0.38 | 0.28 | 93 | 1011.9 | |
| 20260504234058 | 56 | 0.0 | 0.0 | 0.06 | 0.37 | 0.28 | 93 | 1012.0 | |
| 20260504233544 | 56 | 0.0 | 0.0 | 0.09 | 0.37 | 0.28 | 93 | 1012.0 | |
| 20260504233004 | 56 | 0.0 | 0.0 | 0.12 | 0.36 | 0.28 | 93 | 1012.0 | |
| 20260504232554 | 56 | 0.0 | 0.0 | 0.15 | 0.36 | 0.28 | 93 | 1012.0 | |
| 20260504232042 | 56 | 0.0 | 0.0 | 0.18 | 0.36 | 0.28 | 93 | 1012.1 | |
| 20260504231502 | 56 | 0.0 | 0.0 | 0.19 | 0.35 | 0.27 | 93 | 1012.1 | |
| 20260504231052 | 56 | 0.0 | 0.0 | 0.20 | 0.35 | 0.26 | 93 | 1012.1 | |
| 20260504230541 | 56 | 0.0 | 0.0 | 0.24 | 0.35 | 0.26 | 93 | 1012.2 | |
| 20260504230009 | 57 | 0.0 | 0.0 | 0.25 | 0.34 | 0.25 | 93 | 1012.2 | |
| 20260504225600 | 57 | 0.0 | 0.0 | 0.24 | 0.33 | 0.24 | 93 | 1012.1 | |
| 20260504225051 | 57 | 0.0 | 0.0 | 0.24 | 0.32 | 0.24 | 93 | 1012.3 | |
| 20260504224506 | 57 | 0.0 | 0.0 | 0.24 | 0.31 | 0.23 | 93 | 1012.4 | |
| 20260504224056 | 57 | 0.0 | 0.0 | 0.24 | 0.31 | 0.22 | 93 | 1012.4 | |
| 20260504223545 | 57 | 0.0 | 0.0 | 0.21 | 0.28 | 0.20 | 93 | 1012.3 | |
| 20260504223002 | 57 | 0.0 | 0.0 | 0.18 | 0.24 | 0.16 | 93 | 1012.5 | |
| 20260504222553 | 57 | 0.0 | 0.0 | 0.14 | 0.20 | 0.12 | 93 | 1012.5 | |
| 20260504222042 | 57 | 0.0 | 0.0 | 0.12 | 0.18 | 0.09 | 93 | 1012.5 | |
| 20260504221646 | 57 | 0.0 | 0.0 | 0.11 | 0.17 | 0.09 | 93 | 1012.5 | |
| 20260504221050 | 57 | 0.0 | 0.0 | 0.08 | 0.14 | 0.06 | 92 | 1012.6 | |
| 20260504220539 | 57 | 0.0 | 0.0 | 0.05 | 0.10 | 0.02 | 92 | 1012.6 | |
| 20260504220006 | 57 | 0.0 | 0.0 | 0.03 | 0.09 | 0.09 | 92 | 1012.6 | |
| 20260504215558 | 57 | 0.0 | 0.0 | 0.02 | 0.08 | 0.08 | 92 | 1012.6 | |
| 20260504215044 | 58 | 0.0 | 0.0 | 0.02 | 0.07 | 0.07 | 92 | 1012.7 | |
| 20260504214504 | 58 | 0.0 | 0.0 | 0.02 | 0.07 | 0.07 | 92 | 1012.6 | |
| 20260504214054 | 58 | 0.0 | 0.0 | 0.02 | 0.07 | 0.07 | 92 | 1012.7 | |
| 20260504213542 | 58 | 0.0 | 0.0 | 0.01 | 0.06 | 0.06 | 92 | 1012.7 | |
| 20260504213006 | 58 | 0.0 | 0.0 | 0.01 | 0.06 | 0.06 | 92 | 1012.7 | |
| 20260504212553 | 58 | 0.0 | 0.0 | 0.01 | 0.06 | 0.06 | 92 | 1012.7 | |
| 20260504212041 | 58 | 0.0 | 0.0 | 0.02 | 0.06 | 0.06 | 92 | 1012.7 | |
| 20260504211512 | 58 | 0.0 | 0.0 | 0.02 | 0.06 | 0.06 | 92 | 1012.8 | |
| 20260504211059 | 58 | 0.0 | 0.0 | 0.02 | 0.06 | 0.06 | 92 | 1012.8 | |
| 20260504210547 | 58 | 0.0 | 0.0 | 0.01 | 0.06 | 0.06 | 92 | 1012.8 | |
| 20260504210006 | 58 | 0.0 | 0.0 | 0.01 | 0.06 | 0.06 | 92 | 1012.8 | |
| 20260504205558 | 59 | 0.0 | 0.0 | 0.01 | 0.06 | 0.06 | 92 | 1012.8 | |
| 20260504205044 | 59 | 0.0 | 0.0 | 0.01 | 0.06 | 0.06 | 91 | 1012.9 | |
| 20260504204514 | 59 | 0.0 | 0.0 | 0.01 | 0.06 | 0.06 | 91 | 1012.9 | |
| 20260504204002 | 59 | 0.0 | 0.0 | 0.01 | 0.06 | 0.06 | 91 | 1012.9 | |
| 20260504203554 | 59 | 0.0 | 0.0 | 0.01 | 0.06 | 0.06 | 91 | 1012.9 | |
| 20260504203011 | 59 | 0.0 | 0.0 | 0.01 | 0.06 | 0.06 | 91 | 1012.9 | |
| 20260504202602 | 59 | 0.0 | 0.0 | 0.00 | 0.05 | 0.05 | 91 | 1012.9 | |
| 20260504202049 | 59 | 0.0 | 0.0 | 0.00 | 0.05 | 0.05 | 91 | 1012.9 | |
| 20260504201519 | 59 | 0.0 | 0.0 | 0.00 | 0.05 | 0.05 | 91 | 1013.0 | |
| 20260504201005 | 59 | 0.0 | 0.0 | 0.00 | 0.05 | 0.05 | 91 | 1012.9 | |
| 20260504200555 | 59 | 0.0 | 0.0 | 0.00 | 0.05 | 0.05 | 91 | 1012.9 | |
| 20260504200014 | 59 | 0.0 | 0.0 | 0.00 | 0.05 | 0.05 | 91 | 1012.9 | |
| 20260504195504 | 59 | 0.0 | 0.0 | 0.00 | 0.05 | 0.05 | 91 | 1012.9 | |
| 20260504195055 | 59 | 0.0 | 0.0 | 0.00 | 0.05 | 0.05 | 91 | 1012.9 | |
| 20260504194517 | 59 | 0.0 | 0.0 | 0.00 | 0.05 | 0.05 | 90 | 1012.7 | |
| 20260504194059 | 59 | 0.0 | 0.0 | 0.00 | 0.05 | 0.05 | 90 | 1012.7 | |
| 20260504193545 | 59 | 0.0 | 0.0 | 0.00 | 0.05 | 0.05 | 90 | 1012.7 | |
| 20260504193017 | 60 | 0.0 | 0.0 | 0.00 | 0.05 | 0.05 | 90 | 1012.7 | |
| 20260504192502 | 60 | 0.0 | 0.0 | 0.00 | 0.05 | 0.05 | 90 | 1012.7 | |
| 20260504192052 | 60 | 0.0 | 0.0 | 0.00 | 0.05 | 0.05 | 90 | 1012.7 | |
| 20260504191511 | 60 | 0.0 | 0.0 | 0.00 | 0.05 | 0.05 | 90 | 1012.6 | |
| 20260504191102 | 60 | 0.0 | 0.0 | 0.00 | 0.05 | 0.05 | 90 | 1012.7 | |
| 20260504190547 | 59 | 0.0 | 0.0 | 0.00 | 0.05 | 0.05 | 90 | 1012.7 | |
| 20260504190006 | 59 | 0.0 | 0.0 | 0.00 | 0.05 | 0.05 | 89 | 1012.7 | |
| 20260504185556 | 59 | 0.0 | 0.0 | 0.00 | 0.05 | 0.05 | 89 | 1012.6 | |
| 20260504185044 | 59 | 0.0 | 0.0 | 0.00 | 0.05 | 0.05 | 89 | 1012.6 | |
| 20260504184508 | 59 | 0.0 | 0.0 | 0.00 | 0.05 | 0.05 | 89 | 1012.6 | |
| 20260504184056 | 59 | 0.0 | 0.0 | 0.01 | 0.05 | 0.05 | 88 | 1012.6 | |
| 20260504183541 | 60 | 0.0 | 0.0 | 0.01 | 0.05 | 0.05 | 88 | 1012.6 | |
| 20260504183105 | 60 | 0.0 | 0.0 | 0.01 | 0.05 | 0.05 | 88 | 1012.6 | |
| 20260504182557 | 60 | 0.0 | 0.0 | 0.02 | 0.05 | 0.05 | 88 | 1012.6 | |
| 20260504182038 | 60 | 0.0 | 0.0 | 0.02 | 0.05 | 0.05 | 88 | 1012.6 | |
| 20260504181507 | 60 | 0.0 | 0.0 | 0.02 | 0.05 | 0.05 | 88 | 1012.6 | |
| 20260504181058 | 60 | 0.0 | 0.0 | 0.02 | 0.05 | 0.05 | 88 | 1012.6 | |
| 20260504180547 | 60 | 0.0 | 0.0 | 0.02 | 0.05 | 0.05 | 87 | 1012.6 | |
| 20260504180006 | 60 | 0.0 | 0.0 | 0.02 | 0.05 | 0.05 | 87 | 1012.7 | |
| 20260504175556 | 61 | 0.0 | 0.0 | 0.02 | 0.05 | 0.05 | 87 | 1012.7 | |
| 20260504175043 | 61 | 0.0 | 0.0 | 0.03 | 0.05 | 0.05 | 87 | 1012.7 | |
| 20260504174511 | 61 | 0.0 | 0.0 | 0.02 | 0.04 | 0.04 | 87 | 1012.6 | |
| 20260504174104 | 61 | 0.0 | 0.0 | 0.02 | 0.04 | 0.04 | 87 | 1012.6 | |
| 20260504173553 | 62 | 0.0 | 0.0 | 0.02 | 0.04 | 0.04 | 86 | 1012.6 | |
| 20260504173014 | 62 | 0.0 | 0.0 | 0.02 | 0.03 | 0.03 | 86 | 1012.5 | |
| 20260504172602 | 62 | 0.0 | 0.0 | 0.02 | 0.03 | 0.03 | 85 | 1012.6 | |
| 20260504172049 | 62 | 0.0 | 0.0 | 0.02 | 0.03 | 0.03 | 85 | 1012.6 | |
| 20260504171506 | 62 | 0.0 | 0.0 | 0.02 | 0.03 | 0.03 | 84 | 1012.7 | |
| 20260504171057 | 62 | 0.0 | 0.0 | 0.02 | 0.03 | 0.03 | 84 | 1012.8 | |
| 20260504170547 | 63 | 0.0 | 0.0 | 0.01 | 0.02 | 0.02 | 84 | 1012.8 | |
| 20260504151056 | 65 | 0.0 | 0.0 | 0.00 | 0.02 | 0.02 | 79 | 1012.7 | |
| 20260504150544 | 65 | 0.0 | 0.0 | 0.02 | 0.02 | 0.02 | 79 | 1012.7 | |
| 20260504141056 | 67 | 0.0 | 0.0 | 0.01 | 0.09 | 0.01 | 76 | 1012.9 | |
| 20260504140546 | 67 | 0.0 | 0.0 | 0.00 | 0.09 | 0.00 | 74 | 1013.0 | |
| 20260504130549 | 68 | 0.0 | 0.0 | 0.00 | 0.21 | 0.00 | 72 | 1013.3 | |
| 20260504110543 | 63 | 0.0 | 0.0 | 0.00 | 0.21 | 0.00 | 80 | 1013.9 | |
| 20260504100543 | 62 | 0.0 | 0.0 | 0.00 | 0.21 | 0.00 | 82 | 1014.0 | |
| 20260504081502 | 60 | 0.0 | 0.0 | 0.00 | 0.28 | 0.00 | 88 | 1013.9 | |
| 20260504081053 | 60 | 0.0 | 0.0 | 0.00 | 0.28 | 0.00 | 89 | 1013.9 | |
| 20260504080542 | 60 | 0.0 | 0.0 | 0.00 | 0.28 | 0.00 | 90 | 1013.8 | |
| 20260504050542 | 54 | 0.0 | 0.0 | 0.00 | 0.28 | 0.00 | 94 | 1012.7 | |
| 20260504050000 | 54 | 0.0 | 0.0 | 0.00 | 0.28 | 0.00 | 93 | 1012.6 | |
| 20260504045552 | 54 | 0.0 | 0.0 | 0.00 | 0.28 | 0.00 | 93 | 1012.5 | |
| 20260504045044 | 54 | 0.0 | 0.0 | 0.00 | 0.28 | 0.00 | 93 | 1012.5 | |
| 20260504044514 | 54 | 0.0 | 0.0 | 0.00 | 0.28 | 0.00 | 93 | 1012.6 | |
| 20260504044002 | 54 | 0.0 | 0.0 | 0.00 | 0.28 | 0.00 | 93 | 1012.7 | |
| 20260504043557 | 54 | 0.0 | 0.0 | 0.00 | 0.28 | 0.00 | 93 | 1012.6 | |
| 20260504043014 | 54 | 0.0 | 0.0 | 0.00 | 0.28 | 0.00 | 93 | 1012.6 | |
| 20260504042503 | 54 | 0.0 | 0.0 | 0.00 | 0.28 | 0.00 | 93 | 1012.8 | |
| 20260504042056 | 54 | 0.0 | 0.0 | 0.00 | 0.28 | 0.00 | 93 | 1012.9 | |
| 20260504041515 | 54 | 0.0 | 0.0 | 0.00 | 0.28 | 0.00 | 93 | 1012.8 | |
| 20260504041005 | 54 | 0.0 | 0.0 | 0.00 | 0.28 | 0.00 | 93 | 1012.8 | |
| 20260504040556 | 54 | 0.0 | 0.0 | 0.00 | 0.28 | 0.00 | 93 | 1012.8 | |
| 20260504040026 | 54 | 0.0 | 0.0 | 0.00 | 0.28 | 0.00 | 93 | 1012.7 | |
| 20260504035513 | 54 | 0.0 | 0.0 | 0.00 | 0.28 | 0.00 | 93 | 1012.8 | |
| 20260504035001 | 54 | 0.0 | 0.0 | 0.00 | 0.28 | 0.00 | 93 | 1012.8 | |
| 20260504034522 | 54 | 0.0 | 0.0 | 0.00 | 0.28 | 0.00 | 93 | 1012.7 | |
| 20260504034010 | 54 | 0.0 | 0.0 | 0.00 | 0.28 | 0.00 | 93 | 1012.6 | |
| 20260504033600 | 54 | 0.0 | 0.0 | 0.00 | 0.28 | 0.00 | 93 | 1012.6 | |
| 20260504033019 | 54 | 0.0 | 0.0 | 0.00 | 0.28 | 0.00 | 93 | 1012.7 | |
| 20260504032507 | 54 | 0.0 | 0.0 | 0.00 | 0.28 | 0.00 | 93 | 1012.9 | |
| 20260504032058 | 54 | 0.0 | 0.0 | 0.00 | 0.28 | 0.00 | 93 | 1012.8 | |
| 20260504031518 | 54 | 0.0 | 0.0 | 0.00 | 0.28 | 0.00 | 93 | 1012.8 | |
| 20260504031005 | 54 | 0.0 | 0.0 | 0.00 | 0.28 | 0.00 | 93 | 1012.8 | |
| 20260504030555 | 55 | 0.0 | 0.0 | 0.00 | 0.28 | 0.00 | 93 | 1012.8 | |
| 20260504030015 | 55 | 0.0 | 0.0 | 0.00 | 0.28 | 0.00 | 93 | 1012.8 | |
| 20260504025504 | 55 | 0.0 | 0.0 | 0.00 | 0.28 | 0.00 | 93 | 1012.8 | |
| 20260504025057 | 54 | 0.0 | 0.0 | 0.00 | 0.28 | 0.00 | 93 | 1012.8 | |
| 20260504024516 | 54 | 0.0 | 0.0 | 0.00 | 0.28 | 0.00 | 93 | 1012.8 | |
| 20260504024104 | 54 | 0.0 | 0.0 | 0.00 | 0.28 | 0.00 | 93 | 1012.8 | |
| 20260504023550 | 54 | 0.0 | 0.0 | 0.00 | 0.28 | 0.00 | 93 | 1012.8 | |
| 20260504023010 | 54 | 0.0 | 0.0 | 0.00 | 0.28 | 0.00 | 93 | 1012.7 | |
| 20260504022600 | 53 | 0.0 | 0.0 | 0.00 | 0.28 | 0.00 | 93 | 1012.8 | |
| 20260504022048 | 53 | 0.0 | 0.0 | 0.00 | 0.28 | 0.00 | 93 | 1012.7 | |
| 20260504021519 | 52 | 0.0 | 0.0 | 0.00 | 0.28 | 0.00 | 93 | 1012.7 | |
| 20260504021005 | 52 | 0.0 | 0.0 | 0.00 | 0.28 | 0.00 | 93 | 1012.7 | |
| 20260504020555 | 52 | 0.0 | 0.0 | 0.00 | 0.28 | 0.00 | 92 | 1012.6 | |
| 20260504020014 | 51 | 0.0 | 0.0 | 0.00 | 0.59 | 0.00 | 92 | 1012.7 | |
| 20260504015503 | 51 | 0.0 | 0.0 | 0.00 | 0.59 | 0.00 | 92 | 1012.5 | |
| 20260504015054 | 51 | 0.0 | 0.0 | 0.00 | 0.59 | 0.00 | 92 | 1012.4 | |
| 20260504014513 | 51 | 0.0 | 0.0 | 0.00 | 0.59 | 0.00 | 92 | 1012.4 | |
| 20260504014001 | 51 | 0.0 | 0.0 | 0.00 | 0.59 | 0.00 | 92 | 1012.4 | |
| 20260504013551 | 51 | 0.0 | 0.0 | 0.00 | 0.59 | 0.00 | 92 | 1012.6 | |
| 20260504013032 | 51 | 0.0 | 0.0 | 0.00 | 0.59 | 0.00 | 91 | 1012.4 | |
| 20260504012507 | 51 | 0.0 | 0.0 | 0.00 | 0.59 | 0.00 | 91 | 1012.4 | |
| 20260504012101 | 51 | 0.0 | 0.0 | 0.00 | 0.59 | 0.00 | 91 | 1012.3 | |
| 20260504011517 | 52 | 0.0 | 0.0 | 0.00 | 0.59 | 0.00 | 91 | 1012.4 | |
| 20260504011007 | 52 | 0.0 | 0.0 | 0.00 | 0.59 | 0.00 | 92 | 1012.2 | |
| 20260504010555 | 52 | 0.0 | 0.0 | 0.00 | 0.59 | 0.00 | 91 | 1012.2 | |
| 20260504010014 | 52 | 0.0 | 0.0 | 0.00 | 0.59 | 0.00 | 91 | 1012.3 | |
| 20260504005502 | 52 | 0.0 | 0.0 | 0.00 | 0.59 | 0.00 | 91 | 1012.3 | |
| 20260504005053 | 52 | 0.0 | 0.0 | 0.00 | 0.59 | 0.00 | 91 | 1012.4 | |
| 20260504004511 | 52 | 0.0 | 0.0 | 0.00 | 0.59 | 0.00 | 91 | 1012.4 | |
| 20260504004103 | 52 | 0.0 | 0.0 | 0.00 | 0.59 | 0.00 | 91 | 1012.4 |